Location: Unspecified
(48.2082°N, 0.0000°E)
Time: 20:20:54
(UTC+00:00)

Tiros 1 despin weight - Pass Details

Date: 27 June 2019
Orbit: 594 x 642 km, 48.2° (Epoch: 16 July)

Event Time Altitude Azimuth Distance (km) Brightness Sun altitude
Rises 21:59:42 0° 242° (WSW) 2,866 ? -13.3°
Reaches altitude 10° 22:02:02 10° 239° (WSW) 1,955 ? -13.5°
Maximum altitude 22:06:26 60° 160° (SSE) 692 ? -13.9°
Drops below altitude 10° 22:10:49 10° 81° (E) 1,937 ? -14.2°
Sets 22:13:07 0° 77° (ENE) 2,837 ? -14.4°
